Location: *
(47.9333°N, 3.6958°W)
Time: 17:12:27
(UTC+00:00)

Daily predictions for brighter satellites

Satellite Brightness Start Highest point End
(mag) Time Altitude Azimuth Time Altitude Azimuth Time Altitude Azimuth
Cosmos 2333 4.3 18:42:45 10° NNW 18:48:24 66° ENE 18:54:03 10° SE
GP-B 3.6 18:46:30 10° NNE 18:50:41 38° E 18:54:49 10° SSE
NOSS 3-4 (A) 4.2 18:44:19 10° NW 18:50:55 48° NE 18:58:08 10° ESE
NOSS 3-4 (C) 4.2 18:44:25 10° NW 18:51:01 48° NE 18:58:13 10° ESE
USA 186 3.4 18:49:53 10° ESE 18:52:24 20° ENE 18:54:56 10° NNE
COSMOS 2428 2.9 18:51:44 10° NNW 18:57:21 56° ENE 19:02:54 10° SE
Cosmos 2219 Rocket 2.4 18:52:11 10° NNW 18:57:42 54° ENE 19:03:10 10° SE
Cosmos 2322 3.8 18:54:44 10° NNW 19:00:30 87° WSW 19:06:14 10° SSE
NOSS 3-3 (A) 4.0 18:55:11 10° SSW 19:01:03 67° SE 19:07:39 10° NE
NOSS 3-3 (C) 4.0 18:55:18 10° SSW 19:01:09 67° SE 19:07:45 10° NE
HJ-1C 3.6 18:58:33 10° SSE 19:01:49 51° ENE 19:05:07 10° N
USA 116 4.2 18:57:49 10° N 19:02:00 68° WNW 19:05:40 10° SSW
Cosmos 1743 3.5 18:59:22 10° SSW 19:03:08 56° WNW 19:06:58 10° N
NOAA 11 4.2 18:59:36 10° SSE 19:05:05 80° ENE 19:10:37 10° NNW
CZ-2D R/B 3.2 19:01:18 10° SSE 19:05:06 88° WSW 19:08:56 10° NNW
Cosmos 1536 Rocket 3.5 19:02:24 10° N 19:06:46 86° E 19:11:05 10° S
Meteor 1-12 Rocket 4.4 19:01:53 10° S 19:07:26 53° E 19:12:56 10° NNE
SPOT 3 Rocket 4.2 19:03:41 10° SE 19:08:21 37° ENE 19:13:04 10° N
Cosmos 2360 Rocket 3.3 19:03:31 10° NW 19:08:56 48° WSW 19:14:19 10° S
Cosmos 1025 Rocket 2.9 19:05:14 10° N 19:09:33 78° E 19:13:48 10° SSE
Nadezhda 1 Rocket 4.1 19:06:58 10° SSE 19:12:48 53° E 19:18:41 10° NNE
YAOGAN 1 4.1 19:10:11 10° SSW 19:14:16 40° W 19:18:22 10° NNW
Timation 2 Rocket 4.0 19:08:56 10° SSW 19:15:29 69° ESE 19:21:47 10° NNE
Cosmos 1975 3.5 19:11:50 10° SSW 19:15:45 59° WNW 19:19:43 10° N
Meteor 1-21 4.3 19:11:40 10° NNW 19:17:18 83° W 19:22:56 10° S
Meteor 2-15 4.4 19:12:15 10° S 19:18:20 73° E 19:24:30 10° NNE
USA 234 4.2 19:12:53 10° ENE 19:19:02 45° NNW 19:25:12 10° W
NOSS 0 Rocket 4.2 19:14:30 10° NNW 19:20:35 54° NE 19:26:27 11° SE
Cosmos 2219 4.1 19:17:29 10° SSE 19:22:12 27° ESE 19:26:56 10° NE
Cosmos 1842 3.7 19:18:45 10° NNW 19:22:42 65° W 19:26:36 10° S
Cosmos 2227 Rocket 3.6 19:20:31 10° SE 19:23:52 16° E 19:27:15 10° ENE
Lacrosse 4 Rocket 4.3 19:21:51 10° WNW 19:23:57 14° WSW 19:26:01 10° SW
Meteor 2-9 Rocket 4.3 19:20:55 10° S 19:26:43 89° W 19:32:24 10° NNE
ADEOS Rocket 4.0 19:20:32 10° NNE 19:27:04 35° E 19:33:56 10° SSE
IRS-1A Rocket 4.5 19:23:03 10° SSE 19:28:49 77° WSW 19:34:28 10° NNW
CZ-2C R/B 3.8 19:27:46 10° NNE 19:32:10 51° E 19:36:28 10° S
Cosmos 2297 Rocket 3.3 19:30:42 10° SSE 19:34:48 21° E 19:38:55 10° NE
ATLAS 2AS CENTAUR R/B 2.9 19:27:06 10° NW 19:34:54 87° SW 19:41:52 11° SE
ARGOS 3.5 19:31:11 12° SE 19:35:56 44° ENE 19:41:02 10° N
H-2A R/B 2.2 19:35:31 13° SE 19:39:43 48° ENE 19:44:32 10° N
Cosmos 405 Rocket 3.7 19:40:21 23° ESE 19:40:46 24° E 19:43:46 10° NE
Cosmos 1544 3.0 19:40:37 10° S 19:44:13 83° W 19:47:50 10° N
Cosmos 1461 2.7 19:41:21 10° SW 19:45:22 86° NW 19:49:21 10° NE
Cosmos 2341 Rocket 4.0 19:40:28 10° N 19:46:41 60° ENE 19:52:48 10° SSE
SAR-Lupe-2 3.6 19:43:35 10° NNE 19:47:12 82° WNW 19:50:46 10° SSW
Cosmos 2333 Rocket 2.6 19:45:06 10° NNW 19:50:44 64° WSW 19:56:23 10° SSE
ASTEX 1 3.3 19:45:54 10° N 19:50:49 81° E 19:55:41 10° S
Cosmos 2181 Rocket 4.3 19:45:30 10° SSE 19:51:17 43° E 19:57:12 10° NNE
FREGAT/IRIS 3.8 19:51:38 10° S 19:54:17 38° W 19:56:58 10° NNW
Cosmos 1441 Rocket 3.7 19:55:40 10° SSW 19:59:27 59° WNW 20:03:12 10° N
Meteor 2-5 Rocket 4.1 19:55:01 10° N 20:00:35 46° ENE 20:03:38 25° SE
MetOp-A 4.4 19:57:57 24° SE 20:00:51 48° ENE 20:05:59 10° N
Cosmos 1544 Rocket 4.4 20:00:48 30° E 20:01:02 30° E 20:04:56 10° NNE
Cosmos 1455 Rocket 3.6 20:00:39 31° SE 20:01:51 36° E 20:05:57 10° NNE
COSMOS 2455 4.4 19:56:42 10° NW 20:02:01 33° WSW 20:07:17 10° S
Cosmos 1190 Rocket 4.0 19:57:45 10° NNW 20:03:02 64° ENE 20:05:52 27° SE
Cosmos 2237 Rocket 2.2 19:57:37 10° NNW 20:03:20 70° ENE 20:06:39 26° SE
ERBS 4.0 20:00:42 10° NW 20:03:32 24° NNE 20:04:33 21° NE
SL-08 RB Rocket 3.9 20:03:31 28° SE 20:05:46 56° ENE 20:10:21 10° N
Cosmos 389 Rocket 2.2 20:02:21 10° N 20:05:48 81° ENE 20:07:00 38° SSE
In-Cosmos 22 4.0 20:00:34 10° N 20:05:55 72° ENE 20:09:45 20° SSE
Cosmos 2218 Rocket 4.2 20:01:56 10° N 20:08:12 54° ENE 20:11:47 25° SE
Cosmos 1980 3.6 20:06:32 10° NNW 20:12:14 85° ENE 20:15:25 27° SSE
Cosmos 2366 rocket 4.1 20:08:16 10° N 20:14:32 56° ENE 20:17:48 28° SE
Cosmos 1674 3.5 20:11:33 10° N 20:14:32 33° ENE 20:14:32 33° ENE
SL-8 R/B 3.6 20:12:08 10° WSW 20:16:57 87° S 20:18:53 37° E
SJ-6B 3.7 20:13:08 10° S 20:17:05 51° W 20:21:07 10° NNW
Resurs 1-3 3.5 20:16:52 34° SSE 20:18:45 80° ENE 20:23:11 10° NNW
Cosmos 1707 3.8 20:16:17 10° NNW 20:20:02 45° W 20:23:29 12° SSW
Cosmos 1626 Rocket 4.3 20:16:14 10° N 20:19:56 33° ENE 20:19:56 33° ENE
Resurs 01 Rocket 1.6 20:19:37 43° SE 20:20:54 66° ENE 20:25:20 10° N
Meteor 1-4 Rocket 2.4 20:17:56 10° NNW 20:21:32 88° W 20:22:06 61° S
Okean 1 Rocket 4.4 20:18:01 10° SW 20:22:06 40° WNW 20:26:14 10° N
CZ-2C R/B 3.1 20:20:05 34° SE 20:22:23 68° ENE 20:27:50 10° N
USA 186 3.7 20:20:08 10° SSW 20:23:08 30° W 20:26:14 10° NNW
SL-8 Rocket 3.9 20:19:45 10° N 20:26:00 82° E 20:29:57 24° SSE
KORONAS-FOTON 4.5 20:27:01 10° N 20:29:55 39° NE 20:29:55 39° NE
Cosmos 2056 Rocket 3.4 20:25:52 10° SSW 20:31:15 71° ESE 20:36:40 10° NNE
SL-16 R/B 2.5 20:26:59 10° NNW 20:32:30 49° NE 20:33:46 42° E
DMSP B5D2-2 4.2 20:28:13 10° NNE 20:33:21 48° E 20:33:46 47° ESE
Cosmos 407 Rocket 3.8 20:31:09 10° NNW 20:36:13 63° WSW 20:38:35 31° S
Cosmos 614 Rocket 4.3 20:34:27 10° NNW 20:39:38 62° WSW 20:41:54 32° S
Cosmos 1602 Rocket 4.2 20:35:54 10° N 20:39:21 39° NE 20:39:21 39° NE
Cosmos 1959 Rocket 4.4 20:34:34 10° N 20:40:43 87° ENE 20:43:39 34° S
Cosmos 2219 Rocket 4.0 20:36:42 10° NW 20:41:18 27° WSW 20:45:54 10° SSW
NOSS 3-4 (A) 4.4 20:35:14 10° NW 20:42:04 54° WSW 20:46:30 25° S
NOSS 3-4 (C) 4.3 20:35:21 10° NW 20:42:10 55° WSW 20:46:34 25° S
Cosmos 1766 4.3 20:44:57 35° NNE 20:44:57 35° NNE 20:47:23 10° NNE
Cosmos 1624 Rocket 3.9 20:38:23 10° SSW 20:43:36 90° NNE 20:48:50 10° NNE
Cosmos 2082 4.5 20:50:22 35° ENE 20:50:22 35° ENE 20:54:02 10° NE
BREEZE M DEB (TANK) 2.5 20:51:47 10° WNW 20:54:23 74° N 20:54:23 74° N
CZ-2C R/B 3.2 20:51:30 10° NNE 20:55:50 43° ENE 20:55:50 43° ENE
Cosmos 1954 Rocket 3.9 20:51:49 10° NNW 20:57:05 82° WSW 20:57:48 66° S
ERS-1 Rocket 3.7 21:00:29 39° NE 21:00:29 39° NE 21:04:32 10° N
Spot 2 Rocket 3.3 21:00:19 76° SSE 21:00:45 90° WSW 21:05:50 10° NNW
Terra 3.5 21:02:05 21° NE 21:02:05 21° NE 21:04:37 10° N
USA 234 4.1 20:57:41 23° ENE 21:01:17 42° N 21:07:22 10° WNW
Cosmos 2219 3.8 21:00:21 10° SW 21:06:00 56° WNW 21:11:40 10° NNE
Cosmos 1140 Rocket 4.0 21:01:03 10° NNW 21:06:05 52° WSW 21:07:09 44° SW
Cosmos 2227 Rocket 2.1 21:01:28 10° SSW 21:07:08 86° WNW 21:12:51 10° NNE
Cosmos 1437 Rocket 3.7 21:04:31 10° NNW 21:07:30 44° WNW 21:07:30 44° WNW
ADEOS Rocket 4.0 21:05:46 10° N 21:12:47 59° WNW 21:20:18 10° SW
RESURS DK-1 3.9 21:09:03 10° NNW 21:11:33 29° N 21:11:33 29° N
MetOp-B 4.1 21:15:06 71° SW 21:15:30 76° WSW 21:20:54 10° NNW
Cosmos 2297 Rocket 2.4 21:12:38 10° SW 21:18:17 69° WNW 21:23:57 10° NNE
Cosmos 1626 4.4 21:14:53 10° N 21:16:03 19° N 21:16:03 19° N
H-2A R/B 3.9 21:16:09 13° SW 21:19:24 24° W 21:23:27 10° NW
Meteor 1-24 Rocket 4.4 21:24:04 10° NNW 21:29:37 52° W 21:30:49 45° SW
Cosmos 1934 Rocket 4.4 21:24:29 10° N 21:29:35 49° NE 21:29:35 49° NE
Cosmos 1943 4.2 21:31:42 10° NNW 21:36:12 36° NNE 21:36:12 36° NNE
Meteor 2-12 Rocket 4.4 21:32:44 10° N 21:38:29 79° N 21:38:29 79° N
Cosmos 2237 Rocket 4.1 21:42:42 10° NW 21:46:49 21° W 21:48:30 18° WSW
Nadezhda 3 Rocket 4.0 21:51:04 74° NNW 21:51:04 74° NNW 21:56:50 10° N
CZ-4C R/B 4.4 21:51:09 10° NW 21:56:28 25° NNE 21:59:37 19° NE
Resurs 01 Rocket 4.1 21:57:12 15° W 21:57:51 15° W 22:00:25 10° NW
SPOT 5 4.2 22:00:18 37° NNW 22:00:18 37° NNW 22:03:18 10° NNW
Cosmos 1821 Rocket 4.5 22:03:19 10° NNW 22:08:55 54° WNW 22:08:55 54° WNW
SL-16 R/B 3.7 22:11:31 10° NW 22:15:39 29° W 22:15:39 29° W
CZ-2C R/B 4.3 22:32:11 10° N 22:36:57 30° WNW 22:37:19 30° WNW
Terra 4.0 22:40:59 23° NW 22:40:59 23° NW 22:42:56 10° NNW
USA 234 3.7 22:45:01 57° NNW 22:45:01 57° NNW 22:50:17 10° NW
Cosmos 2263 Rocket 4.2 23:23:14 22° NNE 23:23:14 22° NNE 23:25:12 10° NNE
CZ-4C R/B 3.6 23:39:40 10° NW 23:44:45 46° N 23:44:45 46° N
